Location: Bramevaque
(42.9773°N, 0.5757°E)
Time: 12:05:11
(UTC+00:00)

COSMOS 2428 - Pass Details

Date: 15 May 2026
Orbit: 844 x 855 km, 70.9° (Epoch: 5 June)

Event Time Altitude Azimuth Distance (km) Brightness Sun altitude
Rises 22:50:53 0° 337° (NNW) 3,422 7.2 -26.3°
Reaches altitude 10° 22:53:22 10° 340° (NNW) 2,481 6.1 -26.4°
Maximum altitude 22:59:02 67° 63° (ENE) 918 2.8 -26.7°
Enters shadow 22:59:33 63° 95° (E) 941 2.7 -26.7°
